When you browse on this site, cookies collect data to enhance your experience and personalize the content and advertising you see.
Visit our Privacy Policy to learn more. By continuing to use the site, you agree to this use of cookies and data.
  • în România
  • Lista ţărilor
  • Pe 7 zile
  • Temperatura apei
  • Hartă satelitară
  • Meteo pe hartă
  • Widget-uri
  • user-avatar
    Intrare

    Meteo pe oră la Niezwojowice

    Astăzi, 25 Mai, Sâmbătă

    Timp Temperatura Precipitaţii Vânt Presiune Umiditate
    00:00 +12°C° 0 mm 2 m/s 737 mmHg 92%
    01:00 +10°C° 0 mm 2 m/s 737 mmHg 92%
    02:00 +10°C° 0 mm 2 m/s 737 mmHg 93%
    03:00 +10°C° 0 mm 2 m/s 737 mmHg 93%
    04:00 +9°C° 0 mm 2 m/s 737 mmHg 93%
    05:00 +12°C° 0 mm 2 m/s 737 mmHg 89%
    06:00 +13°C° 0 mm 2 m/s 737 mmHg 85%
    07:00 +14°C° 0 mm 3 m/s 737 mmHg 81%
    08:00 +17°C° 0 mm 3 m/s 737 mmHg 73%
    09:00 +18°C° 0 mm 3 m/s 737 mmHg 66%
    10:00 +20°C° 0 mm 3 m/s 737 mmHg 58%
    11:00 +20°C° 0 mm 3 m/s 737 mmHg 57%
    12:00 +21°C° 0 mm 3 m/s 737 mmHg 56%
    13:00 +21°C° 0 mm 3 m/s 737 mmHg 54%
    14:00 +21°C° 0 mm 3 m/s 737 mmHg 56%
    15:00 +22°C° 0 mm 3 m/s 737 mmHg 58%
    16:00 +22°C° 0 mm 3 m/s 737 mmHg 60%
    17:00 +20°C° 0.3 mm 3 m/s 737 mmHg 67%
    18:00 +18°C° 0.3 mm 2 m/s 737 mmHg 74%
    19:00 +17°C° 0.3 mm 2 m/s 737 mmHg 80%
    20:00 +16°C° 0 mm 2 m/s 737 mmHg 83%
    21:00 +15°C° 0 mm 1 m/s 737 mmHg 86%
    22:00 +14°C° 0 mm 1 m/s 738 mmHg 88%
    23:00 +14°C° 0 mm 1 m/s 738 mmHg 89%

    Mâine, 26 Mai, Duminică

    Timp Temperatura Precipitaţii Vânt Presiune Umiditate
    00:00 +13°C° 0 mm 1 m/s 738 mmHg 90%
    01:00 +13°C° 0 mm 1 m/s 738 mmHg 90%
    02:00 +13°C° 0 mm 1 m/s 738 mmHg 91%
    03:00 +12°C° 0 mm 1 m/s 738 mmHg 91%
    04:00 +12°C° 0 mm 1 m/s 738 mmHg 92%
    05:00 +14°C° 0 mm 2 m/s 738 mmHg 89%
    06:00 +15°C° 0 mm 2 m/s 738 mmHg 86%
    07:00 +17°C° 0 mm 2 m/s 738 mmHg 83%
    08:00 +18°C° 0.3 mm 2 m/s 738 mmHg 80%
    09:00 +19°C° 0.3 mm 3 m/s 738 mmHg 76%
    10:00 +20°C° 0.3 mm 3 m/s 738 mmHg 72%
    11:00 +21°C° 0.1 mm 3 m/s 738 mmHg 69%
    12:00 +21°C° 0.1 mm 3 m/s 738 mmHg 66%
    13:00 +22°C° 0.1 mm 3 m/s 737 mmHg 63%
    14:00 +22°C° 0.1 mm 3 m/s 737 mmHg 63%
    15:00 +22°C° 0.1 mm 3 m/s 737 mmHg 62%
    16:00 +23°C° 0.1 mm 2 m/s 737 mmHg 62%
    17:00 +21°C° 0.3 mm 2 m/s 737 mmHg 68%
    18:00 +19°C° 0.3 mm 2 m/s 737 mmHg 74%
    19:00 +18°C° 0.3 mm 2 m/s 737 mmHg 80%
    20:00 +18°C° 0 mm 1 m/s 737 mmHg 83%
    21:00 +16°C° 0 mm 1 m/s 737 mmHg 85%
    22:00 +15°C° 0 mm 1 m/s 738 mmHg 88%
    23:00 +15°C° 0 mm 2 m/s 737 mmHg 89%

    Poimâine, 27 Mai, Luni

    Timp Temperatura Precipitaţii Vânt Presiune Umiditate
    00:00 +14°C° 0 mm 2 m/s 737 mmHg 91%
    01:00 +14°C° 0 mm 2 m/s 737 mmHg 92%
    02:00 +14°C° 0 mm 2 m/s 737 mmHg 92%
    03:00 +14°C° 0 mm 2 m/s 737 mmHg 92%
    04:00 +13°C° 0 mm 2 m/s 736 mmHg 92%
    05:00 +15°C° 0 mm 2 m/s 737 mmHg 89%
    06:00 +17°C° 0 mm 2 m/s 737 mmHg 85%
    07:00 +19°C° 0 mm 2 m/s 737 mmHg 81%
    08:00 +20°C° 0.2 mm 3 m/s 737 mmHg 76%
    09:00 +21°C° 0.2 mm 3 m/s 736 mmHg 71%
    10:00 +23°C° 0.2 mm 4 m/s 736 mmHg 66%
    11:00 +23°C° 0.3 mm 4 m/s 736 mmHg 64%
    12:00 +25°C° 0.3 mm 4 m/s 736 mmHg 62%
    13:00 +25°C° 0.3 mm 4 m/s 736 mmHg 60%
    14:00 +25°C° 0.4 mm 3 m/s 736 mmHg 61%
    15:00 +25°C° 0.4 mm 2 m/s 735 mmHg 63%
    16:00 +25°C° 0.4 mm 2 m/s 735 mmHg 65%
    17:00 +24°C° 0.4 mm 2 m/s 735 mmHg 70%
    18:00 +21°C° 0.4 mm 2 m/s 735 mmHg 75%
    19:00 +20°C° 0.4 mm 2 m/s 735 mmHg 80%
    20:00 +20°C° 0 mm 1 m/s 735 mmHg 81%
    21:00 +19°C° 0 mm 1 m/s 735 mmHg 83%
    22:00 +18°C° 0 mm 1 m/s 735 mmHg 84%
    23:00 +18°C° 0.5 mm 1 m/s 735 mmHg 86%

    28 Mai, Marţi

    Timp Temperatura Precipitaţii Vânt Presiune Umiditate
    00:00 +18°C° 0.5 mm 1 m/s 734 mmHg 89%
    01:00 +16°C° 0.5 mm 1 m/s 734 mmHg 91%
    02:00 +16°C° 1.1 mm 1 m/s 734 mmHg 92%
    03:00 +16°C° 1.1 mm 1 m/s 734 mmHg 94%
    04:00 +16°C° 1.1 mm 1 m/s 733 mmHg 95%
    05:00 +18°C° 0.1 mm 1 m/s 733 mmHg 94%
    06:00 +19°C° 0.1 mm 1 m/s 733 mmHg 92%
    07:00 +18°C° 0.1 mm 2 m/s 733 mmHg 91%
    08:00 +20°C° 0 mm 2 m/s 733 mmHg 84%
    09:00 +23°C° 0 mm 2 m/s 733 mmHg 78%
    10:00 +24°C° 0 mm 2 m/s 733 mmHg 71%
    11:00 +24°C° 0.9 mm 2 m/s 732 mmHg 72%
    12:00 +24°C° 0.9 mm 2 m/s 732 mmHg 73%
    13:00 +24°C° 0.9 mm 2 m/s 732 mmHg 74%
    14:00 +23°C° 3.2 mm 2 m/s 732 mmHg 78%
    15:00 +21°C° 3.2 mm 2 m/s 731 mmHg 82%
    16:00 +20°C° 3.2 mm 2 m/s 731 mmHg 85%
    17:00 +19°C° 0.2 mm 2 m/s 731 mmHg 87%
    18:00 +19°C° 0.2 mm 2 m/s 731 mmHg 89%
    19:00 +18°C° 0.2 mm 2 m/s 731 mmHg 92%
    20:00 +18°C° 1.3 mm 2 m/s 731 mmHg 91%
    21:00 +17°C° 1.3 mm 2 m/s 731 mmHg 90%
    22:00 +17°C° 1.3 mm 2 m/s 732 mmHg 89%
    23:00 +16°C° 0 mm 2 m/s 732 mmHg 91%

    29 Mai, Miercuri

    Timp Temperatura Precipitaţii Vânt Presiune Umiditate
    00:00 +16°C° 0 mm 3 m/s 732 mmHg 93%
    01:00 +14°C° 0 mm 3 m/s 732 mmHg 95%
    02:00 +14°C° 0.3 mm 3 m/s 733 mmHg 95%
    03:00 +14°C° 0.3 mm 3 m/s 733 mmHg 96%
    04:00 +14°C° 0.3 mm 3 m/s 734 mmHg 96%
    05:00 +13°C° 0.9 mm 4 m/s 734 mmHg 95%
    06:00 +13°C° 0.9 mm 5 m/s 735 mmHg 94%
    07:00 +11°C° 0.9 mm 6 m/s 736 mmHg 93%
    08:00 +11°C° 0.9 mm 6 m/s 737 mmHg 93%
    09:00 +10°C° 0.9 mm 6 m/s 737 mmHg 93%
    10:00 +10°C° 0.9 mm 6 m/s 738 mmHg 92%
    11:00 +10°C° 0.1 mm 5 m/s 739 mmHg 90%
    12:00 +12°C° 0.1 mm 4 m/s 739 mmHg 88%
    13:00 +12°C° 0.1 mm 4 m/s 740 mmHg 85%
    14:00 +13°C° 0 mm 3 m/s 740 mmHg 84%
    15:00 +13°C° 0 mm 3 m/s 741 mmHg 83%
    16:00 +15°C° 0 mm 2 m/s 741 mmHg 82%
    17:00 +13°C° 0 mm 3 m/s 742 mmHg 83%
    18:00 +13°C° 0 mm 3 m/s 742 mmHg 83%
    19:00 +12°C° 0 mm 3 m/s 742 mmHg 84%
    20:00 +11°C° 0 mm 3 m/s 743 mmHg 85%
    21:00 +10°C° 0 mm 3 m/s 743 mmHg 87%
    22:00 +9°C° 0 mm 3 m/s 744 mmHg 88%
    23:00 +9°C° 0 mm 3 m/s 744 mmHg 90%

    30 Mai, Joi

    Timp Temperatura Precipitaţii Vânt Presiune Umiditate
    00:00 +8°C° 0 mm 3 m/s 744 mmHg 91%
    01:00 +8°C° 0 mm 3 m/s 744 mmHg 92%
    02:00 +7°C° 0 mm 2 m/s 745 mmHg 92%
    03:00 +7°C° 0 mm 2 m/s 745 mmHg 92%
    04:00 +7°C° 0 mm 2 m/s 745 mmHg 92%
    05:00 +8°C° 0 mm 2 m/s 745 mmHg 86%
    06:00 +9°C° 0 mm 2 m/s 745 mmHg 79%
    07:00 +10°C° 0 mm 2 m/s 746 mmHg 72%
    08:00 +12°C° 0 mm 2 m/s 745 mmHg 67%
    09:00 +12°C° 0 mm 2 m/s 745 mmHg 61%
    10:00 +13°C° 0 mm 1 m/s 745 mmHg 56%
    11:00 +13°C° 0.3 mm 2 m/s 745 mmHg 62%
    12:00 +12°C° 0.3 mm 2 m/s 745 mmHg 68%
    13:00 +12°C° 0.3 mm 2 m/s 744 mmHg 74%
    14:00 +12°C° 0 mm 2 m/s 744 mmHg 75%
    15:00 +12°C° 0 mm 1 m/s 744 mmHg 75%
    16:00 +12°C° 0 mm 1 m/s 743 mmHg 76%
    17:00 +11°C° 0 mm 1 m/s 743 mmHg 77%
    18:00 +11°C° 0 mm 1 m/s 743 mmHg 77%
    19:00 +11°C° 0 mm 1 m/s 743 mmHg 78%
    20:00 +10°C° 0 mm 1 m/s 743 mmHg 75%
    21:00 +10°C° 0 mm 1 m/s 743 mmHg 72%
    22:00 +10°C° 0 mm 1 m/s 743 mmHg 69%
    23:00 +10°C° 0 mm 1 m/s 743 mmHg 68%
    Arată mai mult